Regional Weather Roundup
Issued by NWS

Home | Current Version | Previous Version | Graphics & Text | Print | Product List | Glossary On
Versions: 1 2 3 4 5 6 7 8 9 10 11 12 13 14 15 16 17 18 19 20 21 22 23 24 25 26 27 28 29 30 31 32 33 34 35 36 37 38 39 40 41 42 43 44 45 46 47 48 49 50
000
ASUS43 KLOT 221110
RWRIL

ILLINOIS REGIONAL WEATHER ROUNDUP
NATIONAL WEATHER SERVICE CHICAGO/ROMEOVILLE IL
500 AM CST MON DEC 22 2014

NOTE: "FAIR" INDICATES FEW OR NO CLOUDS BELOW 12,000 FEET WITH NO
SIGNIFICANT WEATHER AND/OR OBSTRUCTIONS TO VISIBILITY.

* THESE STATIONS ARE NOT UNDER NWS QUALITY CONTROL. THEY ALSO MAY NOT
  REPORT WEATHER SUCH AS PRECIPITATION OR FOG.

ILZ001-002-007-009-015-016-024-221200-
NORTHWEST ILLINOIS

CITY           SKY/WX    TMP DP  RH WIND       PRES   REMARKS
MOLINE         CLOUDY    36  31  82 SE10      29.82F WCI  28
STERLING*      CLOUDY    34  28  80 SE9       29.87F WCI  26
SAVANNA*       CLOUDY    35  31  85 S10       29.86S WCI  28
$$

ILZ003-004-008-010-011-017-018-221200-
NORTH CENTRAL ILLINOIS

CITY           SKY/WX    TMP DP  RH WIND       PRES   REMARKS
ROCKFORD       LGT SNOW  33  29  85 SE12      29.92F FOG     WCI  24
FREEPORT*      CLOUDY    32  31  95 SE12      29.89S FOG     WCI  23
ROCHELLE*      CLOUDY    32  30  93 SE9       29.90F FOG     WCI  24
DE KALB*       CLOUDY    30  28  91 SE13      29.92S FOG     WCI  20
PERU*          CLOUDY    34  31  88 SE13      29.90F WCI  25
$$

ILZ005-006-012>014-019>023-221200-
NORTHEAST ILLINOIS

CITY           SKY/WX    TMP DP  RH WIND       PRES   REMARKS
CHICAGO-OHARE  CLOUDY    31  27  85 S10       29.95F WCI  22
CHICAGO-MIDWAY MOCLDY    33  28  81 SE6       29.96F WCI  28
AURORA         CLOUDY    33  27  78 SE10      29.94F HAZE    WCI  25
LANSING*       CLOUDY    31  27  85 SE6       29.97S WCI  25
JOLIET*        CLOUDY    31  28  87 SE6       29.95F FOG     WCI  25
WAUKEGAN       PTCLDY    31  27  85 SE8       29.94F FOG     WCI  23
DUPAGE AIRPORT CLOUDY    32  27  81 S10       29.93F WCI  24
KANKAKEE*      CLOUDY    31  29  89 SE8       29.96F WCI  24
WHEELING       CLOUDY    31  27  85 S6        29.97F WCI  25
MORRIS*        CLOUDY    33  31  91 SE8       29.93F WCI  26
ROMEOVILLE*    CLOUDY    31  28  89 S7        29.96S FOG     WCI  24
NORTHERLY ISL    N/A     32  27  82 S10         N/A  WCI  24
$$

LMZ740>746-221200-
SOUTHERN LAKE MICHIGAN

STATION/POSITION SKY/WX   TEMP    WIND        PRES    VSBY  WAVE
                          AIR SEA DIR/SP/G                  HT/PER
                          (F)     (DEG/KT/KT) (MB)    (MI)  (FT/S)
WAUKEGAN HARBOR            33     160/ 15/ 20   N/A
HARRISON CRIB              33     160/ 16/ 20   N/A
BURNHAM HARBOR             32     160/ 13       N/A
CALUMET HARBOR             31     160/  7/ 10 1013.7S
$$

ILZ025>027-034>036-040-047-049-050-058-095>099-221200-
WEST-CENTRAL ILLINOIS

CITY           SKY/WX    TMP DP  RH WIND       PRES   REMARKS
QUINCY         CLOUDY    40  32  73 SE13      29.77F
GALESBURG*     CLOUDY    36  32  88 E8        29.83F WCI  29
MACOMB*        CLOUDY    37  33  88 SE12      29.84F WCI  29
JACKSONVILLE*  CLOUDY    39  33  79 SE12G17   29.82F WCI  32
PITTSFIELD*    CLOUDY    39  33  78 E8        29.80F WCI  34
$$

ILZ028>032-037-038-041>044-048-051>054-059>061-221200-
CENTRAL ILLINOIS

CITY           SKY/WX    TMP DP  RH WIND       PRES   REMARKS
PONTIAC        CLOUDY    34  31  91 SE12      29.92F WCI  25
BLOOMINGTON    CLOUDY    33  30  89 SE9       29.89F WCI  25
DECATUR        CLOUDY    34  30  85 SE13      29.89F WCI  25
PEORIA         CLOUDY    36  31  82 SE8       29.87F WCI  30
LACON*         CLOUDY    34  30  85 SE3       29.88F
LINCOLN*       CLOUDY    35  32  87 SE6       29.88F WCI  30
SPRINGFIELD    CLOUDY    37  30  75 SE13      29.86F WCI  29
TAYLORVILLE    CLOUDY    34  32  93 SE10      29.86F WCI  26
$$

ILZ033-039-045-046-055>057-062-063-221200-
EAST-CENTRAL ILLINOIS

CITY           SKY/WX    TMP DP  RH WIND       PRES   REMARKS
CHAMPAIGN      CLOUDY    32  29  88 E12       29.91F WCI  23
DANVILLE*      DRIZZLE   31  29  90 E5        29.92F WCI  27
RANTOUL*       CLOUDY    33  31  91 E7        29.92F WCI  27
MATTOON        CLOUDY    34  28  79 SE12      29.89F WCI  25
PARIS*         CLOUDY    33  30  90 E7        29.94F WCI  27
$$

ILZ079-100>102-221200-
SOUTHWEST ILLINOIS

CITY           SKY/WX    TMP DP  RH WIND       PRES   REMARKS
ALTON          CLOUDY    39  32  76 E10       29.83F WCI  32
BELLEVILLE     DRIZZLE   39  36  87 E6        29.83F WCI  35
CAHOKIA*       LGT RAIN  41  33  73 SE8       29.83F
SPARTA*        CLOUDY    39  33  79 SE9       29.84F WCI  33
$$

ILZ064>066-069>071-074>076-080>082-084>086-088>090-092>094-221200-
SOUTH-CENTRAL ILLINOIS

CITY           SKY/WX    TMP DP  RH WIND       PRES   REMARKS
CARBONDALE     CLOUDY    40  33  76 E5        29.85F
CAIRO*         CLOUDY    46  41  80 SE7       29.85F
EFFINGHAM*     CLOUDY    35  28  77 E6        29.92F WCI  30
MARION         CLOUDY    43  34  70 E6        29.87F
MT. VERNON     CLOUDY    37  28  70 E8        29.88F WCI  31
CENTRALIA*     CLOUDY    38  31  76 E7        29.86F WCI  32
SALEM*         CLOUDY    39  32  75 SE6       29.88F
METROPOLIS*    CLOUDY    43  38  83 E5        29.86F
$$

ILZ067-068-072-073-078-083-087-091-221200-
SOUTHEAST ILLINOIS

CITY           SKY/WX    TMP DP  RH WIND       PRES   REMARKS
LAWRENCEVILLE  CLOUDY    34  30  85 E7        29.94F WCI  28
FLORA*         MOCLDY    35  31  85 E3        29.91F
FAIRFIELD*     CLOUDY    37  31  79 E5        29.90S WCI  34
HARRISBURG*    CLOUDY    38  32  79 E9        29.89F WCI  31
ROBINSON*      CLOUDY    34  31  88 E6        29.95F WCI  29
CARMI*         CLOUDY    39  34  84 E7        29.91F WCI  34
$$

ABBREVIATIONS USED IN REMARKS
   TC - TEMPERATURE IN CELSIUS
  WCI - WIND CHILL INDEX
   HX - HEAT INDEX
  VSB - VISIBILITY
$$



USA.gov is the U.S. government's official web portal to all federal, state and local government web resources and services.